User: anonymous   Login
Location: Unspecified
(0.0000°N, 0.0000°E)
Time: 14:32:30
(UTC+00:00)
Language:

SINAH 1 - Orbit

View from above orbital plane
View from above orbital plane
View from above satellite
View from above satellite

Ground track
Ground track

The orbit data is extracted from the following two-line orbital elements,

1 28893U 05043D   17084.89928071 +.00000029 +00000-0 +14662-4 0  9990
2 28893 097.8635 247.0452 0016380 058.8487 301.4319 14.61424056608033
Epoch (UTC): 25 March 2017 21:34:57
Eccentricity: 0.0016380
inclination: 97.8635°
perigee height: 677 km
apogee height: 700 km
right ascension of ascending node: 247.0452°
argument of perigee: 58.8487°
revolutions per day: 14.61424056
mean anomaly at epoch: 301.4319°
orbit number at epoch: 60803

The dashed part of the orbit path shows where the satellite is in the earth's shadow,  

DLR